Orbital Elements at Epoch 2459200.5 (2020-Dec-17.0) TDB
Reference: JPL 21 (heliocentric ecliptic J2000)
Element | Value | Uncertainty (1-sigma) | Units |
e | .2001631392793759 | 5.849e-08 | |
a | 2.770087911212385 | 1.9909e-08 | au |
q | 2.215618418824265 | 1.6936e-07 | au |
i | 8.804586541467632 | 5.387e-06 | deg |
node | 51.37836243450501 | 4.4159e-05 | deg |
peri | 184.8450908826458 | 4.9083e-05 | deg |
M | 10.19166766158915 | 2.5809e-05 | deg |
tp | 2459152.826009291788 (2020-Oct-30.32600929) | 0.00012038 | TDB |
period | 1683.987078938992 4.61 | 1.8155e-05 4.971e-08 | d yr |
n | .2137783623772342 | 2.3047e-09 | deg/d |
Q | 3.324557403600505 | 2.3894e-08 | au |
|
| | Orbit Determination Parameters
Additional Information
|